When you browse on this site, cookies collect data to enhance your experience and personalize the content and advertising you see.
Visit our Privacy Policy to learn more. By continuing to use the site, you agree to this use of cookies and data.
  • In Hungary
  • List of Countries
  • For 7 days
  • Water Temperature
  • Satellite Maps
  • Weather Map
  • News
  • Weather Widgets
  • user-avatar
    Login

    Hourly Weather Lengerich

    Today, 22 February, Friday

    Time Temperature Precipitation Wind Pressure Humidity
    00:00 +8°C° 0 mm 3 mps 764 mmHg 94%
    01:00 +8°C° 0 mm 3 mps 764 mmHg 95%
    02:00 +8°C° 0 mm 3 mps 764 mmHg 95%
    03:00 +8°C° 0 mm 2 mps 765 mmHg 96%
    04:00 +8°C° 0 mm 2 mps 765 mmHg 96%
    05:00 +8°C° 0 mm 2 mps 765 mmHg 96%
    06:00 +7°C° 0 mm 2 mps 766 mmHg 97%
    07:00 +7°C° 0 mm 2 mps 766 mmHg 97%
    08:00 +8°C° 0 mm 2 mps 767 mmHg 95%
    09:00 +8°C° 0 mm 2 mps 767 mmHg 92%
    10:00 +8°C° 0 mm 2 mps 768 mmHg 89%
    11:00 +9°C° 0 mm 2 mps 768 mmHg 85%
    12:00 +9°C° 0 mm 2 mps 769 mmHg 81%
    13:00 +10°C° 0 mm 2 mps 769 mmHg 77%
    14:00 +10°C° 0 mm 3 mps 769 mmHg 75%
    15:00 +10°C° 0 mm 3 mps 770 mmHg 73%
    16:00 +10°C° 0 mm 3 mps 770 mmHg 71%
    17:00 +9°C° 0 mm 3 mps 770 mmHg 75%
    18:00 +8°C° 0 mm 3 mps 770 mmHg 78%
    19:00 +7°C° 0 mm 3 mps 770 mmHg 82%
    20:00 +5°C° 0 mm 3 mps 771 mmHg 83%
    21:00 +5°C° 0 mm 3 mps 771 mmHg 84%
    22:00 +4°C° 0 mm 3 mps 771 mmHg 84%
    23:00 +4°C° 0 mm 3 mps 771 mmHg 85%

    Tomorrow, 23 February, Saturday

    Time Temperature Precipitation Wind Pressure Humidity
    00:00 +4°C° 0 mm 3 mps 771 mmHg 85%
    01:00 +3°C° 0 mm 3 mps 772 mmHg 85%
    02:00 +3°C° 0 mm 3 mps 771 mmHg 84%
    03:00 +2°C° 0 mm 3 mps 771 mmHg 82%
    04:00 +2°C° 0 mm 3 mps 770 mmHg 81%
    05:00 +1°C° 0 mm 3 mps 771 mmHg 78%
    06:00 +1°C° 0 mm 3 mps 771 mmHg 76%
    07:00 +2°C° 0 mm 2 mps 771 mmHg 74%
    08:00 +3°C° 0 mm 2 mps 771 mmHg 68%
    09:00 +3°C° 0 mm 3 mps 771 mmHg 63%
    10:00 +4°C° 0 mm 3 mps 771 mmHg 58%
    11:00 +5°C° 0 mm 3 mps 771 mmHg 52%
    12:00 +8°C° 0 mm 3 mps 771 mmHg 47%
    13:00 +9°C° 0 mm 3 mps 770 mmHg 42%
    14:00 +10°C° 0 mm 3 mps 770 mmHg 41%
    15:00 +10°C° 0 mm 3 mps 770 mmHg 41%
    16:00 +11°C° 0 mm 3 mps 770 mmHg 40%
    17:00 +9°C° 0 mm 3 mps 770 mmHg 43%
    18:00 +8°C° 0 mm 3 mps 770 mmHg 47%
    19:00 +7°C° 0 mm 3 mps 770 mmHg 50%
    20:00 +5°C° 0 mm 3 mps 770 mmHg 51%
    21:00 +6°C° 0 mm 2 mps 770 mmHg 51%
    22:00 +5°C° 0 mm 2 mps 770 mmHg 52%
    23:00 +5°C° 0 mm 2 mps 770 mmHg 51%

    Day after tomorrow, 24 February, Sunday

    Time Temperature Precipitation Wind Pressure Humidity
    00:00 +5°C° 0 mm 2 mps 770 mmHg 50%
    01:00 +4°C° 0 mm 2 mps 770 mmHg 49%
    02:00 +4°C° 0 mm 2 mps 770 mmHg 48%
    03:00 +4°C° 0 mm 2 mps 770 mmHg 46%
    04:00 +3°C° 0 mm 2 mps 770 mmHg 44%
    05:00 +3°C° 0 mm 2 mps 770 mmHg 44%
    06:00 +3°C° 0 mm 2 mps 770 mmHg 43%
    07:00 +4°C° 0 mm 1 mps 770 mmHg 42%
    08:00 +4°C° 0 mm 2 mps 770 mmHg 41%
    09:00 +5°C° 0 mm 2 mps 770 mmHg 40%
    10:00 +6°C° 0 mm 2 mps 770 mmHg 39%
    11:00 +8°C° 0 mm 2 mps 770 mmHg 36%
    12:00 +10°C° 0 mm 1 mps 770 mmHg 32%
    13:00 +12°C° 0 mm 1 mps 770 mmHg 29%
    14:00 +13°C° 0 mm 1 mps 770 mmHg 31%
    15:00 +13°C° 0 mm 1 mps 770 mmHg 32%
    16:00 +13°C° 0 mm 2 mps 770 mmHg 34%
    17:00 +12°C° 0 mm 1 mps 770 mmHg 38%
    18:00 +11°C° 0 mm 1 mps 770 mmHg 42%
    19:00 +9°C° 0 mm 1 mps 770 mmHg 46%
    20:00 +9°C° 0 mm 1 mps 770 mmHg 48%
    21:00 +9°C° 0 mm 1 mps 770 mmHg 50%
    22:00 +7°C° 0 mm 2 mps 770 mmHg 52%
    23:00 +8°C° 0 mm 1 mps 770 mmHg 52%

    25 February, Monday

    Time Temperature Precipitation Wind Pressure Humidity
    00:00 +7°C° 0 mm 1 mps 771 mmHg 53%
    01:00 +7°C° 0 mm 1 mps 771 mmHg 53%
    02:00 +7°C° 0 mm 1 mps 771 mmHg 54%
    03:00 +7°C° 0 mm 1 mps 771 mmHg 54%
    04:00 +5°C° 0 mm 0 mps 771 mmHg 55%
    05:00 +6°C° 0 mm 1 mps 771 mmHg 55%
    06:00 +6°C° 0 mm 1 mps 771 mmHg 56%
    07:00 +6°C° 0 mm 1 mps 771 mmHg 56%
    08:00 +7°C° 0 mm 1 mps 771 mmHg 54%
    09:00 +8°C° 0 mm 1 mps 771 mmHg 51%
    10:00 +9°C° 0 mm 1 mps 771 mmHg 49%
    11:00 +11°C° 0 mm 1 mps 771 mmHg 46%
    12:00 +12°C° 0 mm 2 mps 771 mmHg 43%
    13:00 +14°C° 0 mm 2 mps 771 mmHg 40%
    14:00 +14°C° 0 mm 2 mps 771 mmHg 41%
    15:00 +15°C° 0 mm 2 mps 771 mmHg 41%
    16:00 +15°C° 0 mm 2 mps 770 mmHg 42%
    17:00 +14°C° 0 mm 1 mps 771 mmHg 46%
    18:00 +12°C° 0 mm 1 mps 771 mmHg 51%
    19:00 +11°C° 0 mm 1 mps 771 mmHg 55%
    20:00 +10°C° 0 mm 1 mps 771 mmHg 57%
    21:00 +10°C° 0 mm 1 mps 771 mmHg 59%
    22:00 +9°C° 0 mm 1 mps 771 mmHg 60%
    23:00 +9°C° 0 mm 1 mps 770 mmHg 62%

    26 February, Tuesday

    Time Temperature Precipitation Wind Pressure Humidity
    00:00 +8°C° 0 mm 1 mps 770 mmHg 64%
    01:00 +7°C° 0 mm 0 mps 770 mmHg 66%
    02:00 +7°C° 0 mm 0 mps 770 mmHg 67%
    03:00 +6°C° 0 mm 0 mps 770 mmHg 68%
    04:00 +6°C° 0 mm 0 mps 769 mmHg 69%
    05:00 +6°C° 0 mm 0 mps 769 mmHg 70%
    06:00 +6°C° 0 mm 0 mps 769 mmHg 70%
    07:00 +5°C° 0 mm 0 mps 769 mmHg 71%
    08:00 +7°C° 0 mm 0 mps 769 mmHg 67%
    09:00 +8°C° 0 mm 0 mps 769 mmHg 62%
    10:00 +9°C° 0 mm 0 mps 769 mmHg 58%
    11:00 +11°C° 0 mm 0 mps 769 mmHg 53%
    12:00 +13°C° 0 mm 1 mps 769 mmHg 48%
    13:00 +14°C° 0 mm 1 mps 769 mmHg 43%
    14:00 +15°C° 0 mm 1 mps 768 mmHg 43%
    15:00 +15°C° 0 mm 1 mps 768 mmHg 43%
    16:00 +15°C° 0 mm 1 mps 767 mmHg 43%
    17:00 +14°C° 0 mm 1 mps 767 mmHg 47%
    18:00 +12°C° 0 mm 1 mps 767 mmHg 52%
    19:00 +11°C° 0 mm 1 mps 767 mmHg 56%
    20:00 +10°C° 0 mm 1 mps 767 mmHg 58%
    21:00 +10°C° 0 mm 1 mps 767 mmHg 60%
    22:00 +9°C° 0 mm 1 mps 767 mmHg 62%
    23:00 +9°C° 0 mm 1 mps 767 mmHg 63%

    27 February, Wednesday

    Time Temperature Precipitation Wind Pressure Humidity
    00:00 +9°C° 0 mm 1 mps 766 mmHg 64%
    01:00 +8°C° 0 mm 1 mps 766 mmHg 65%
    02:00 +8°C° 0 mm 1 mps 766 mmHg 65%
    03:00 +8°C° 0 mm 1 mps 766 mmHg 65%
    04:00 +8°C° 0 mm 1 mps 765 mmHg 65%
    05:00 +7°C° 0 mm 1 mps 765 mmHg 65%
    06:00 +7°C° 0 mm 1 mps 765 mmHg 65%
    07:00 +7°C° 0 mm 1 mps 764 mmHg 65%
    08:00 +8°C° 0 mm 1 mps 764 mmHg 61%
    09:00 +10°C° 0 mm 1 mps 764 mmHg 58%
    10:00 +11°C° 0 mm 1 mps 764 mmHg 54%
    11:00 +12°C° 0 mm 1 mps 763 mmHg 51%
    12:00 +14°C° 0 mm 2 mps 763 mmHg 48%
    13:00 +15°C° 0 mm 2 mps 762 mmHg 45%
    14:00 +16°C° 0 mm 2 mps 762 mmHg 47%
    15:00 +16°C° 0 mm 3 mps 761 mmHg 48%
    16:00 +16°C° 0 mm 3 mps 761 mmHg 49%
    17:00 +15°C° 0 mm 2 mps 761 mmHg 55%
    18:00 +13°C° 0 mm 2 mps 760 mmHg 61%
    19:00 +12°C° 0 mm 2 mps 760 mmHg 67%
    20:00 +10°C° 0 mm 2 mps 760 mmHg 70%
    21:00 +10°C° 0 mm 2 mps 760 mmHg 73%
    22:00 +9°C° 0 mm 2 mps 759 mmHg 77%
    23:00 +8°C° 0 mm 2 mps 759 mmHg 79%
    Show more